Location: Bijele Vode
(45.2833°N, 16.2000°E)
Time: 14:33:31
(UTC+00:00)

Cosmos 1269 Rocket - Pass Details

Date: 18 September 2020
Orbit: 772 x 779 km, 74.1° (Epoch: 31 October)

Event Time Altitude Azimuth Distance (km) Brightness Sun altitude
Rises 19:34:18 0° 340° (NNW) 3,272 8.0 -26.5°
Reaches altitude 10° 19:36:43 10° 343° (NNW) 2,341 7.1 -26.9°
Enters shadow 19:41:23 63° 22° (NNE) 873 4.2 -27.5°
